Weather in Natyrbovo

Russia / Republic of Adygea     44°43′51″N   40°37′17″E
В апреле 2022 года жителям России запретили посещать сайт meteo.paraplan.net по решению Генеральной прокуратуры. Аудитория сайта уменьшилась в 10 раз. Владельцы сайта не видят смысла в поддержке погодного сервера в таких условиях. Сайт будет закрыт в октябре.
temp.,
°C
wind,
m/s
gust,
m/s
humid.,
%
clouds,
%
prec.,
mm/h
press.,
hPa
HPBL,
m
5 october, wed
wed500:00+15sw2280100 0.0 102028
03:00+14s1189100 0.1 102147
06:00+12nw1294100 1.3 102287
09:00+12nw3496100 6.2 1024188
12:00+13e2294100 2.9 1025255
15:00+13ese2392100 3.3 1024234
18:00+13ene119460 0.0 102523
21:00+12sse119514 0.0 102611
6 october, thu
thu600:00+12ssw119354 0.0 102613
03:00+12nw119499 0.0 102623
06:00+12n118499 0.0 102633
09:00+13ne126992 0.1 1027182
12:00+16ene235892 0.0 1026609
15:00+18ene22529 0.0 10251165
18:00+15ne126362 0.0 102513
21:00+13ene356043 0.0 102694
7 october, fri
fri700:00+11ene34658 0.0 102665
03:00+11ene35683 0.0 102585
06:00+10e23780 0.0 102535
09:00+15e46610 0.0 1024394
12:00+20ene56521 0.0 10231134
15:00+21ene56511 0.0 10211410
18:00+16e49742 0.0 1021224
21:00+14e411790 0.0 1021247
8 october, sat
sat800:00+13e513795 0.0 1020393
03:00+13e6146917 0.0 1020447
06:00+12e615713 0.0 1018501
09:00+16e8157018 0.0 1018811
12:00+19e10126176 0.0 10161107
15:00+19e101364100 0.0 10151012
18:00+16e7137373 0.0 1016756
21:00+15e7137582 0.0 1015604
9 october, sun
sun900:00+15e4778100 0.0 1014272
03:00+13e2485100 0.0 1014155
06:00+12sw1192100 0.0 101422
09:00+16w3477100 0.0 1014348
12:00+19w4564100 0.0 1014597
15:00+18w2366100 0.0 1014500
18:00+16w2480100 0.3 1015115
21:00+15ssw2290100 1.1 101638